Regional Weather Roundup
Issued by NWS

Home | Current Version | Previous Version | Text Only | Print | Product List | Glossary Off
Versions: 1 2 3 4 5 6 7 8 9 10 11 12 13 14 15 16 17 18 19 20 21 22 23 24 25 26 27 28 29 30 31 32 33 34 35 36 37 38 39 40 41 42 43 44 45 46 47 48 49 50

000
ASUS43 KOAX 290110
RWRNE

WEATHER ROUNDUP FOR NEBRASKA
NATIONAL WEATHER SERVICE OMAHA NE
800 PM CDT THU JUL 28 2016

NOTES: SATELLITE DATA IS BEING USED TO AUGMENT CLOUD COVER ABOVE
       12000 FEET.
       "FAIR" INDICATES FEW OR NO CLOUDS BELOW 12,000 FEET WITH NO
       SIGNIFICANT WEATHER AND/OR OBSTRUCTIONS TO VISIBILITY.

  * THESE STATIONS DO NOT REPORT WEATHER SUCH AS RAIN...SNOW OR FOG.

NEZ001>004-019>022-054>056-290200-
NEBRASKA PANHANDLE

CITY           SKY/WX    TMP DP  RH WIND       PRES   REMARKS
SCOTTSBLUFF    SUNNY     79  57  46 E8        30.14S
ALLIANCE       MOSUNNY   76  54  46 CALM      30.13S
CHADRON        SUNNY     77  56  48 NE8       30.10S
KIMBALL        CLOUDY    74  54  49 E10       30.20F
SIDNEY         CLOUDY    75  53  46 NE12      30.19R
$$

NEZ057>060-069>072-079>082-290200-
SOUTHWEST NEBRASKA

CITY           SKY/WX    TMP DP  RH WIND       PRES   REMARKS
NORTH PLATTE   SUNNY     74  60  61 NE3       30.09S
IMPERIAL       SUNNY     72  61  68 NE8       30.12R
LEXINGTON      PTCLDY    73  65  75 NW3       30.06S
MCCOOK         MOCLDY    74  61  63 NE10      30.08R
OGALLALA       SUNNY     75  61  62 SE5       30.12R
$$

NEZ005>010-023>029-035>040-094-290200-
NORTH CENTRAL NEBRASKA

CITY           SKY/WX    TMP DP  RH WIND       PRES   REMARKS
VALENTINE      CLOUDY    75  60  59 NE12G18   30.08R THUNDER
AINSWORTH      CLOUDY    66  63  87 E9        30.09S
BROKEN BOW     CLOUDY    72  66  81 E6        30.06S
O`NEILL        CLOUDY    75  62  64 CALM      30.06R
ORD            CLOUDY    75  62  64 E7        30.03S
THEDFORD       PTSUNNY   76  59  54 CALM      30.09R
$$

NEZ041-046>049-061>064-073>077-083>087-290200-
SOUTH CENTRAL NEBRASKA

CITY           SKY/WX    TMP DP  RH WIND       PRES   REMARKS
GRAND ISLAND   CLOUDY    73  67  81 NE7       30.02F
AURORA         CLOUDY    72  69  89 NE5       30.01S
HASTINGS       CLOUDY    70  66  87 N3        30.02S
HEBRON         CLOUDY    74  69  84 E3        29.96F
HOLDREGE       CLOUDY    72  69  89 N7        30.04S
KEARNEY *      CLOUDY    72  14  11 NE6       30.04S
YORK           CLOUDY    73  68  83 NE9       30.01S
$$

NEZ011>018-030>034-042>045-290200-
NORTHEAST NEBRASKA

CITY           SKY/WX    TMP DP  RH WIND       PRES   REMARKS
NORFOLK        CLOUDY    75  59  57 NE6       30.02S
ALBION         CLOUDY    73  65  74 N3        30.03S
BLAIR          CLOUDY    76  64  68 N5        30.00S
FREMONT        CLOUDY    76  62  61 CALM      30.01S
TEKAMAH        CLOUDY    77  64  64 NE3       30.00R
WAYNE          CLOUDY    74  66  75 N3        30.02S
$$

NEZ050>053-065>068-078-088>093-290200-
SOUTHEAST NEBRASKA

CITY           SKY/WX    TMP DP  RH WIND       PRES   REMARKS
LINCOLN        CLOUDY    78  63  59 NE8       30.00R
OMAHA EPPLEY   CLOUDY    78  63  59 NE8       29.99R
BEATRICE       CLOUDY    79  65  63 NE6       29.99R
FALLS CITY     PTCLDY    78  69  73 NW3       29.96R
NEBRASKA CITY  CLOUDY    76  66  70 NE5       29.98R
PLATTSMOUTH    CLOUDY    76  63  64 N3        29.98S
$$

NEZ044-045-051>053-067-290200-
OMAHA AREA

CITY           SKY/WX    TMP DP  RH WIND       PRES   REMARKS
OMAHA EPPLEY   CLOUDY    78  63  59 NE8       29.99R
BLAIR          CLOUDY    76  64  68 N5        30.00S
FREMONT        CLOUDY    76  62  61 CALM      30.01S
MILLARD        CLOUDY    79  63  57 N5        29.98F
PLATTSMOUTH    CLOUDY    76  63  64 N3        29.98S
WAHOO          FAIR      75  66  73 N3        29.99F
$$




USA.gov is the U.S. government's official web portal to all federal, state and local government web resources and services.